Simultaneous Nadir Overpasses (SNOs) Predictions

Prediction of SNOs between AQUA and METOP-B Satellite Orbit:

Table of predicted SNOs for the next 14.0 days since TLE Epoch: 7/10/2021
Index Date (AQUA) Time (AQUA) Lat,Lon (AQUA) SZA (AQUA ) Date (METOP-B) Time (METOP-B) Lat,Lon (METOP-B) SZA (METOP-B ) Distance(km) Time Diff (sec)
1 07/12/2021 14:59:46 -73.77, 129.37 128.05 07/12/2021 14:59:08 -73.75, 129.40 128.07 2.78 38
2 07/12/2021 15:49:15 73.84, -63.14 52.03 07/12/2021 15:49:46 73.83, -63.08 52.01 2.16 31
3 07/15/2021 10:34:02 -73.76,-164.16 127.64 07/15/2021 10:33:31 -73.76,-164.17 127.63 0.55 31
4 07/15/2021 11:23:31 73.82, 3.33 52.44 07/15/2021 11:24:09 73.84, 3.36 52.45 2.02 38
5 07/18/2021 06:08:18 -73.74, -97.70 127.17 07/18/2021 06:07:54 -73.77, -97.74 127.14 2.97 24
6 07/18/2021 06:57:47 73.81, 69.78 52.91 07/18/2021 06:58:32 73.85, 69.79 52.94 3.75 45
7 07/21/2021 00:52:55 73.08, 162.47 52.64 07/21/2021 00:51:49 73.02, 159.67 52.72 91.20 66
8 07/21/2021 01:42:34 -73.79, -31.37 126.60 07/21/2021 01:42:16 -73.78, -31.31 126.61 2.39 18
9 07/21/2021 02:32:03 73.86, 136.11 53.49 07/21/2021 02:32:54 73.86, 136.21 53.47 3.50 51
10 07/23/2021 20:27:16 73.35,-131.63 53.49 07/23/2021 20:26:07 73.28,-133.36 53.51 55.78 69
11 07/23/2021 21:16:50 -73.79, 35.07 126.03 07/23/2021 21:16:39 -73.78, 35.11 126.04 1.70 11
12 07/23/2021 22:06:19 73.87,-157.47 54.06 07/23/2021 22:07:17 73.86,-157.37 54.04 3.17 58



Historial Predications of SNOs between AQUA and METOP-B
